Regional Weather Roundup
Issued by NWS

Home | Current Version | Previous Version | Graphics & Text | Print | Product List | Glossary On
Versions: 1 2 3 4 5 6 7 8 9 10 11 12 13 14 15 16 17 18 19 20 21 22 23 24 25 26 27 28 29 30 31 32 33 34 35 36 37 38 39 40 41 42 43 44 45 46 47 48 49 50
000
ASUS43 KIND 220909
RWRIN

WEATHER ROUNDUP FOR INDIANA
NATIONAL WEATHER SERVICE INDIANAPOLIS IN
500 AM EDT SAT APR 22 2017

NOTE: "FAIR" INDICATES FEW OR NO CLOUDS BELOW 12,000 FEET WITH NO
SIGNIFICANT WEATHER AND/OR OBSTRUCTIONS TO VISIBILITY.

* - STATION DOES NOT REPORT WEATHER SUCH AS PRECIPITATION OR FOG.

+ - STATION NOT QUALITY CONTROLLED BY THE NATIONAL WEATHER SERVICE.
    USE DATA WITH CAUTION...ESPECIALLY DEWPOINT AND RELATIVE
    HUMIDITY OBSERVATIONS.

INZ001>003-010>013-019-020-221000-
NORTHWEST INDIANA

CITY           SKY/WX    TMP DP  RH WIND       PRES   REMARKS
GARY /AIRPORT/ CLOUDY    45  37  76 NE9G16    30.14R
KNOX *+        CLOUDY    37  23  56 NE7       30.10R
LA PORTE +     CLOUDY    41  34  77 NE9       30.12R
MICHIGAN CITY+ PTCLDY    41  34  75 NE6       30.12S
MONTICELLO +   CLOUDY    41  35  79 NE7       30.08R
RENSSELAER +   CLOUDY    41  37  87 N8        30.12R
VALPARAISO     CLOUDY    42  35  76 NE7       30.12R

$$

LMZ046-743>745-221000-
SOUTHERN LAKE MICHIGAN

STATION/POSITION TIME  TEMP    WIND        PRES    WAVE
                       AIR SEA DIR/SP/G            HT
                 (UTC) (F)     (DEG/KT/KT) (MB)    (FT)
BURNS HARBOR     0840   44      40/ 15/ 18 1020.0F
MICHIGAN CITY    0840   45      40/ 18/ 21   N/A

$$

INZ004-005-014>016-021>024-221000-
NORTH CENTRAL INDIANA

CITY           SKY/WX    TMP DP  RH WIND       PRES   REMARKS
GOSHEN         PTCLDY    40  33  76 NE8       30.07F
LOGANSPORT +   CLOUDY    41  34  75 NE7       30.09R
PERU/GRISSOM   MOCLDY    41  37  84 NE8       30.06R
ROCHESTER +    CLOUDY    41  37  87 NE3       30.09S
SOUTH BEND     CLOUDY    39  34  82 NE10      30.11F
WARSAW +       PTCLDY    39  34  81 NE7       30.08F

$$

INZ006>009-017-018-025>027-221000-
NORTHEAST INDIANA

CITY           SKY/WX    TMP DP  RH WIND       PRES   REMARKS
ANGOLA *+      CLEAR     39  36  87 NE8       30.09S
AUBURN +       CLOUDY    41  34  75 NE9       30.08F
FORT WAYNE     CLOUDY    42  34  73 NE14      30.06F
HUNTINGTON +   PTCLDY    40  36  83 NE6       30.05F
KENDALLVILLE + CLOUDY    39  35  85 NE10      30.08F

$$

INZ028-029-035-036-043>045-051>053-221000-
WEST CENTRAL INDIANA

CITY           SKY/WX    TMP DP  RH WIND       PRES   REMARKS
CRAWFORDSVL +  CLOUDY    41  37  84 NE10      30.06R
GREENCASTLE +  CLOUDY    43  36  75 NE9       30.05R
LAFAYETTE      CLOUDY    42  36  79 NE12      30.08R
TERRE HAUTE    MOCLDY    45  36  70 NE12      30.04S

$$

INZ030>032-037>040-046>048-054>057-064-065-221000-
CENTRAL INDIANA

CITY           SKY/WX    TMP DP  RH WIND       PRES   REMARKS
CP ATTERBURY + CLOUDY    45  37  76 N6        30.05R
FISHERS *+     CLOUDY    43  39  87 NE3       30.05
FRANKFORT +    CLOUDY    45  38  78 NE12      30.08R
GREENWOOD *+   CLOUDY    46  37  70 NE12G17   30.04R
INDIANAPOLIS   CLOUDY    45  36  70 NE14G22   30.03R
-EAGLE CREEK   CLOUDY    46  35  65 NE12      30.04R
KOKOMO +       MOCLDY    43  35  73 NE12      30.08R
MT COMFORT *+  CLOUDY    43  37  81 NE13      30.04R
SHELBYVILLE    CLOUDY    47  37  68 N10       30.02R
ZIONSVILLE +   CLOUDY    42  36  79 NE10      30.06R

$$

INZ033-034-041-042-049-050-058-059-221000-
EAST CENTRAL INDIANA

CITY           SKY/WX    TMP DP  RH WIND       PRES   REMARKS
MUNCIE         PTCLDY    44  37  76 NE12      30.03S
RICHMOND +     CLOUDY    43  36  75 NE12      30.01S

$$

INZ060-061-067>069-081>083-085>088-221000-
SOUTHWEST INDIANA

CITY           SKY/WX    TMP DP  RH WIND       PRES   REMARKS
EVANSVILLE     CLOUDY    49  42  77 N8        30.02R
HUNTINGBURG *+ CLOUDY    47  42  83 N12       30.01R
WASHINGTON +   CLOUDY    46  37  70 MISG      30.02S

$$

INZ062-063-066-070>080-084-089>092-221000-
SOUTH CENTRAL AND SOUTHEAST INDIANA

CITY           SKY/WX    TMP DP  RH WIND       PRES   REMARKS
BEDFORD +      CLOUDY    45  39  81 N8        30.00
BLOOMINGTON    CLOUDY    46  36  68 NE8       30.01R
MADISON *+     MOCLDY    46  41  81 NE9       29.99F
NORTH VERNON + CLOUDY    46  45  93 NE8       30.01S
SEYMOUR +      CLOUDY    48  41  76 N9        30.01R

$$





USA.gov is the U.S. government's official web portal to all federal, state and local government web resources and services.